User: anonymous   Login
Location: Newark
(44.0692°N, 7.2567°E)
Time: 02:49:38
(UTC+00:00)
Language:

FO-29 - Orbit

View from above orbital plane
View from above orbital plane
View from above satellite
View from above satellite

Ground track
Ground track

The orbit data is extracted from the following two-line orbital elements,

1 24278U 96046B   19290.81777262 -.00000003 +00000-0 +36052-4 0  9993
2 24278 098.5563 067.8954 0349303 286.0497 070.2445 13.53093928143933
Epoch (UTC): 17 October 2019 19:37:35
Eccentricity: 0.0349303
inclination: 98.5563°
perigee height: 801 km
apogee height: 1321 km
right ascension of ascending node: 67.8954°
argument of perigee: 286.0497°
revolutions per day: 13.53093928
mean anomaly at epoch: 70.2445°
orbit number at epoch: 14393

The dashed part of the orbit path shows where the satellite is in the earth's shadow,  

DLR